Flag for China Weather past 2 weeks in Chongqing, Chongqing Municipality, China

Now
72 °F

Scattered clouds.


Feels Like: 74 °F
Forecast: 69 / 82 °F
Wind: 8 mph from Northeast

Location: Chongqing Airport

Current Time: May 25, 2015 at 3:46:51 PM

Latest Report: May 25, 2015 at 3:00 PM


Visibility: N/A

Pressure: 29.71 "Hg

Humidity: 73%

Dew point: 63 °F

Location of ChongqingLocation

Historic Weather in Chongqing — Graph

°F

Chongqing temperature yesterday

Maximum temperature yesterday: 82 °F (at 2:00 PM)
Minimum temperature yesterday: 66 °F (at 4:00 AM)
Average temperature yesterday: 74 °F

Past Weeks' High & Low Weather Summary

 TemperatureHumidityPressure
High90 °F (May 20, 4:00 PM)94% (May 15, 4:00 AM)30.15 "Hg (May 15, 4:00 AM)
Low63 °F (May 11, 4:00 AM)32% (May 11, 3:00 PM)29.56 "Hg (May 13, 5:00 PM)
Average72 °F70%29.79 "Hg
* Reported May 10 2:00 PM — May 25 2:00 PM, Chongqing, Weather by CustomWeather, © 2015

Note: Actual official high and low records may vary slightly from our data, if they occured in-between our weather recording intervals... More about our weather records

Advertising

Chongqing weather history for previous 24 hours

 ConditionsComfort  
Time TempWeatherWind HumidityBarometerVisibility
2:00 PM
Mon, May 25
72 °FScattered clouds.10 mph73%29.71 "HgN/A
1:00 PM70 °FScattered clouds.8 mph78%29.74 "HgN/A
12:00 PM70 °FScattered clouds.6 mph78%29.74 "HgN/A
11:00 AM70 °FScattered clouds.3 mph83%29.74 "HgN/A
10:00 AM68 °FScattered clouds.3 mph88%29.74 "HgN/A
9:00 AM68 °FSprinkles. Scattered clouds.3 mph88%29.74 "HgN/A
8:00 AM68 °FRain showers. More clouds than sun.3 mph83%29.74 "HgN/A
7:00 AM68 °FLight rain. More clouds than sun.6 mph88%29.71 "HgN/A
6:00 AM68 °FLight rain. More clouds than sun.6 mph88%29.71 "HgN/A
5:00 AM70 °FSprinkles. Passing clouds.6 mph83%29.71 "HgN/A
4:00 AM70 °FLight rain. Passing clouds.6 mph83%29.71 "HgN/A
3:00 AM72 °FClear.8 mph73%29.71 "Hg10 mi
2:00 AM72 °FClear.10 mph78%29.71 "Hg10 mi
1:00 AM72 °FClear.10 mph78%29.74 "Hg10 mi
12:00 AM73 °FClear.13 mph74%29.74 "Hg10 mi
11:00 PM
Sun, May 24
75 °FClear.10 mph69%29.74 "Hg10 mi
10:00 PM75 °FClear.8 mph69%29.77 "Hg10 mi
9:00 PM75 °FClear.8 mph69%29.74 "Hg10 mi
8:00 PM77 °FClear.8 mph65%29.71 "Hg10 mi
7:00 PM79 °FSunny.6 mph58%29.71 "Hg10 mi
6:00 PM81 °FPassing clouds.6 mph54%29.68 "HgN/A
5:00 PM81 °FPassing clouds.3 mph54%29.71 "HgN/A
4:00 PM81 °FScattered clouds.6 mph51%29.71 "HgN/A
3:00 PM81 °FScattered clouds.1 mph51%29.71 "HgN/A
Weather by CustomWeather, © 2015

See weather overviewHow to use our weather pages